Stündliche Wetter Cecina

Heute, 30 Oktober, Freitag

Zeit Temperatur Niederschläge Wind Luftdruck Luftfeuchtigkeit
00:00 +14°C° 0 mm 1 m/S 765 mmHg 90%
01:00 +13°C° 0 mm 1 m/S 765 mmHg 92%
02:00 +13°C° 0 mm 1 m/S 765 mmHg 92%
03:00 +13°C° 0 mm 1 m/S 765 mmHg 92%
04:00 +14°C° 0 mm 1 m/S 765 mmHg 92%
05:00 +13°C° 0 mm 1 m/S 765 mmHg 92%
06:00 +13°C° 0 mm 1 m/S 765 mmHg 92%
07:00 +13°C° 0 mm 1 m/S 766 mmHg 92%
08:00 +15°C° 0 mm 1 m/S 766 mmHg 87%
09:00 +18°C° 0 mm 1 m/S 766 mmHg 81%
10:00 +20°C° 0 mm 1 m/S 766 mmHg 75%
11:00 +20°C° 0 mm 1 m/S 766 mmHg 73%
12:00 +21°C° 0 mm 1 m/S 766 mmHg 70%
13:00 +22°C° 0 mm 1 m/S 766 mmHg 69%
14:00 +21°C° 0 mm 1 m/S 766 mmHg 72%
15:00 +21°C° 0 mm 1 m/S 766 mmHg 75%
16:00 +20°C° 0 mm 1 m/S 766 mmHg 78%
17:00 +19°C° 0 mm 1 m/S 766 mmHg 82%
18:00 +16°C° 0 mm 1 m/S 766 mmHg 87%
19:00 +14°C° 0 mm 0 m/S 766 mmHg 92%
20:00 +14°C° 0 mm 0 m/S 767 mmHg 92%
21:00 +15°C° 0 mm 1 m/S 767 mmHg 92%
22:00 +14°C° 0 mm 1 m/S 767 mmHg 92%
23:00 +14°C° 0 mm 1 m/S 767 mmHg 92%

Morgen, 31 Oktober, Samstag

Zeit Temperatur Niederschläge Wind Luftdruck Luftfeuchtigkeit
00:00 +14°C° 0 mm 1 m/S 767 mmHg 92%
01:00 +14°C° 0 mm 1 m/S 767 mmHg 92%
02:00 +14°C° 0 mm 1 m/S 767 mmHg 92%
03:00 +14°C° 0 mm 1 m/S 767 mmHg 92%
04:00 +13°C° 0 mm 1 m/S 767 mmHg 92%
05:00 +13°C° 0 mm 1 m/S 767 mmHg 92%
06:00 +13°C° 0 mm 1 m/S 767 mmHg 91%
07:00 +13°C° 0 mm 1 m/S 767 mmHg 91%
08:00 +15°C° 0 mm 1 m/S 767 mmHg 84%
09:00 +18°C° 0 mm 1 m/S 767 mmHg 77%
10:00 +20°C° 0 mm 1 m/S 767 mmHg 71%
11:00 +21°C° 0 mm 1 m/S 767 mmHg 67%
12:00 +22°C° 0 mm 1 m/S 767 mmHg 64%
13:00 +22°C° 0 mm 1 m/S 766 mmHg 60%
14:00 +22°C° 0 mm 1 m/S 766 mmHg 65%
15:00 +21°C° 0 mm 1 m/S 766 mmHg 69%
16:00 +20°C° 0 mm 1 m/S 765 mmHg 74%
17:00 +19°C° 0 mm 1 m/S 765 mmHg 80%
18:00 +16°C° 0 mm 1 m/S 766 mmHg 86%
19:00 +15°C° 0 mm 1 m/S 766 mmHg 92%
20:00 +15°C° 0 mm 1 m/S 766 mmHg 92%
21:00 +14°C° 0 mm 1 m/S 766 mmHg 92%
22:00 +13°C° 0 mm 0 m/S 766 mmHg 93%
23:00 +14°C° 0 mm 1 m/S 766 mmHg 93%

übermorgen, 1 November, Sonntag

Zeit Temperatur Niederschläge Wind Luftdruck Luftfeuchtigkeit
00:00 +14°C° 0 mm 1 m/S 766 mmHg 93%
01:00 +14°C° 0 mm 1 m/S 766 mmHg 93%
02:00 +13°C° 0 mm 1 m/S 766 mmHg 93%
03:00 +13°C° 0 mm 1 m/S 765 mmHg 93%
04:00 +13°C° 0 mm 1 m/S 765 mmHg 94%
05:00 +13°C° 0 mm 1 m/S 765 mmHg 94%
06:00 +13°C° 0 mm 1 m/S 765 mmHg 94%
07:00 +13°C° 0 mm 1 m/S 765 mmHg 94%
08:00 +14°C° 0 mm 1 m/S 766 mmHg 90%
09:00 +16°C° 0 mm 1 m/S 766 mmHg 86%
10:00 +18°C° 0 mm 1 m/S 766 mmHg 83%
11:00 +18°C° 0 mm 1 m/S 766 mmHg 80%
12:00 +19°C° 0 mm 1 m/S 766 mmHg 78%
13:00 +20°C° 0 mm 1 m/S 766 mmHg 76%
14:00 +20°C° 0 mm 1 m/S 765 mmHg 77%
15:00 +19°C° 0 mm 1 m/S 765 mmHg 79%
16:00 +19°C° 0 mm 1 m/S 765 mmHg 80%
17:00 +18°C° 0 mm 1 m/S 765 mmHg 84%
18:00 +16°C° 0 mm 1 m/S 765 mmHg 87%
19:00 +15°C° 0 mm 1 m/S 766 mmHg 90%
20:00 +15°C° 0 mm 1 m/S 766 mmHg 91%
21:00 +15°C° 0 mm 1 m/S 766 mmHg 91%
22:00 +15°C° 0 mm 2 m/S 766 mmHg 91%
23:00 +15°C° 0 mm 2 m/S 766 mmHg 91%

2 November, Montag

Zeit Temperatur Niederschläge Wind Luftdruck Luftfeuchtigkeit
00:00 +15°C° 0 mm 2 m/S 766 mmHg 91%
01:00 +15°C° 0 mm 2 m/S 766 mmHg 90%
02:00 +15°C° 0 mm 2 m/S 766 mmHg 90%
03:00 +15°C° 0 mm 2 m/S 766 mmHg 90%
04:00 +15°C° 0 mm 2 m/S 766 mmHg 90%
05:00 +15°C° 0 mm 2 m/S 766 mmHg 90%
06:00 +15°C° 0 mm 2 m/S 766 mmHg 89%
07:00 +15°C° 0 mm 2 m/S 766 mmHg 88%
08:00 +16°C° 0 mm 2 m/S 767 mmHg 86%
09:00 +17°C° 0 mm 2 m/S 767 mmHg 83%
10:00 +18°C° 0 mm 2 m/S 767 mmHg 81%
11:00 +18°C° 0 mm 2 m/S 767 mmHg 78%
12:00 +19°C° 0 mm 2 m/S 767 mmHg 75%
13:00 +20°C° 0 mm 2 m/S 767 mmHg 72%
14:00 +19°C° 0 mm 2 m/S 767 mmHg 74%
15:00 +19°C° 0 mm 2 m/S 767 mmHg 75%
16:00 +19°C° 0 mm 2 m/S 766 mmHg 77%
17:00 +18°C° 0 mm 2 m/S 766 mmHg 82%
18:00 +16°C° 0 mm 2 m/S 767 mmHg 87%
19:00 +15°C° 0 mm 2 m/S 767 mmHg 92%
20:00 +15°C° 0 mm 2 m/S 767 mmHg 92%
21:00 +15°C° 0 mm 2 m/S 767 mmHg 93%
22:00 +14°C° 0 mm 1 m/S 767 mmHg 93%
23:00 +14°C° 0 mm 1 m/S 767 mmHg 94%

3 November, Dienstag

Zeit Temperatur Niederschläge Wind Luftdruck Luftfeuchtigkeit
00:00 +14°C° 0 mm 2 m/S 767 mmHg 94%
01:00 +14°C° 0 mm 2 m/S 767 mmHg 95%
02:00 +14°C° 0 mm 2 m/S 766 mmHg 95%
03:00 +14°C° 0 mm 2 m/S 766 mmHg 95%
04:00 +14°C° 0 mm 2 m/S 766 mmHg 95%
05:00 +14°C° 0 mm 2 m/S 766 mmHg 95%
06:00 +13°C° 0 mm 3 m/S 766 mmHg 95%
07:00 +13°C° 0 mm 3 m/S 766 mmHg 95%
08:00 +14°C° 0 mm 3 m/S 766 mmHg 90%
09:00 +17°C° 0 mm 3 m/S 766 mmHg 85%
10:00 +18°C° 0 mm 3 m/S 767 mmHg 81%
11:00 +19°C° 0 mm 3 m/S 766 mmHg 79%
12:00 +19°C° 0 mm 3 m/S 766 mmHg 77%
13:00 +20°C° 0 mm 3 m/S 766 mmHg 76%
14:00 +19°C° 0 mm 2 m/S 766 mmHg 78%
15:00 +19°C° 0 mm 2 m/S 765 mmHg 80%
16:00 +19°C° 0 mm 2 m/S 765 mmHg 82%
17:00 +18°C° 0 mm 1 m/S 765 mmHg 86%
18:00 +16°C° 0 mm 1 m/S 765 mmHg 91%
19:00 +15°C° 0 mm 1 m/S 765 mmHg 95%
20:00 +15°C° 0 mm 1 m/S 765 mmHg 95%
21:00 +15°C° 0 mm 1 m/S 765 mmHg 95%
22:00 +14°C° 0 mm 1 m/S 765 mmHg 96%
23:00 +14°C° 0 mm 1 m/S 765 mmHg 95%

4 November, Mittwoch

Zeit Temperatur Niederschläge Wind Luftdruck Luftfeuchtigkeit
00:00 +14°C° 0 mm 1 m/S 765 mmHg 95%
01:00 +14°C° 0 mm 1 m/S 765 mmHg 95%
02:00 +14°C° 0 mm 1 m/S 764 mmHg 95%
03:00 +14°C° 0 mm 2 m/S 764 mmHg 95%
04:00 +13°C° 0 mm 2 m/S 764 mmHg 95%
05:00 +13°C° 0 mm 2 m/S 764 mmHg 95%
06:00 +13°C° 0 mm 2 m/S 764 mmHg 95%
07:00 +13°C° 0 mm 2 m/S 764 mmHg 95%
08:00 +15°C° 0 mm 2 m/S 764 mmHg 90%
09:00 +16°C° 0 mm 2 m/S 764 mmHg 85%
10:00 +18°C° 0 mm 3 m/S 764 mmHg 80%
11:00 +18°C° 0 mm 3 m/S 764 mmHg 77%
12:00 +19°C° 0 mm 3 m/S 764 mmHg 74%
13:00 +19°C° 0 mm 3 m/S 764 mmHg 72%
14:00 +19°C° 0 mm 3 m/S 764 mmHg 74%
15:00 +19°C° 0 mm 3 m/S 764 mmHg 77%
16:00 +18°C° 0 mm 3 m/S 764 mmHg 80%
17:00 +18°C° 0 mm 3 m/S 765 mmHg 82%
18:00 +17°C° 0 mm 3 m/S 765 mmHg 84%
19:00 +17°C° 0 mm 2 m/S 765 mmHg 85%
20:00 +17°C° 0 mm 2 m/S 766 mmHg 86%
21:00 +16°C° 0 mm 2 m/S 766 mmHg 86%
22:00 +16°C° 0 mm 2 m/S 767 mmHg 86%
23:00 +16°C° 0 mm 2 m/S 767 mmHg 87%
Mehr zeigen